Terminal Aerodrome Forecast
Issued by NWS

Home | Current Version | Previous Version | Text Only | Print | Product List | Glossary On
Versions: 1 2 3 4 5 6 7 8 9 10 11 12 13 14 15 16 17
000
FTUS44 KLZK 302334
TAFHRO
TAF
KHRO 302334Z 3100/3124 VRB05KT P6SM -RA VCTS SCT040CB BKN080 OVC250
     FM310600 VRB03KT P6SM VCSH OVC050
     FM310900 VRB03KT 5SM BR FEW005 SCT030 OVC050
      TEMPO 3110/3114 3SM BR BKN025 OVC040
     FM311500 13006KT P6SM SCT020 BKN050 OVC250=

USA.gov is the U.S. government's official web portal to all federal, state and local government web resources and services.